DW0383 Weather Reports


Display with metric or nautical units.
time (UTC)temp
F
wind
direction
speed
MPH
gust
MPH
rain 1hr
in
rain 24hr
in
rain mn
in
humidity
%
barometer
mb
20190521213913 54 319 8.0 13.0 0.00 0.00 0.00 62 1014.4
20190521213421 55 315 4.0 14.0 0.00 0.00 0.00 60 1014.4
20190521212910 55 10 6.0 14.0 0.00 0.00 0.00 61 1014.1
20190521212421 55 322 5.0 12.0 0.00 0.00 0.00 61 1014.1
20190521211929 55 320 4.0 8.0 0.00 0.00 0.00 64 1014.1
20190521211421 55 322 4.0 14.0 0.00 0.00 0.00 61 1014.0
20190521210914 55 339 6.0 14.0 0.00 0.00 0.00 60 1014.2
20190521210446 55 323 1.0 12.0 0.00 0.00 0.00 60 1014.1
20190521205914 55 312 7.0 12.0 0.00 0.00 0.00 59 1013.8
20190521205430 55 336 0.0 11.0 0.00 0.00 0.00 62 1013.8
20190521204923 55 315 4.0 15.0 0.00 0.00 0.00 63 1013.7
20190521204453 55 326 2.0 17.0 0.00 0.00 0.00 62 1013.6
20190521203920 55 359 3.0 20.0 0.00 0.00 0.00 62 1013.8
20190521203411 55 343 3.0 20.0 0.00 0.00 0.00 59 1013.4
20190521202926 55 12 4.0 19.0 0.00 0.00 0.00 61 1013.3
20190521202418 54 331 6.0 19.0 0.00 0.00 0.00 61 1013.3
20190521201931 54 329 10.0 17.0 0.00 0.00 0.00 59 1013.3
20190521201441 54 33 3.0 10.0 0.00 0.00 0.00 63 1013.2
20190521200948 54 348 4.0 15.0 0.00 0.00 0.00 62 1013.1
20190521200417 54 325 4.0 15.0 0.00 0.00 0.00 59 1013.1
20190521195950 54 330 3.0 17.0 0.00 0.00 0.00 64 1013.1
20190521195419 53 327 9.0 17.0 0.00 0.00 0.00 63 1012.9
20190521194930 53 310 7.0 14.0 0.00 0.00 0.00 64 1012.8
20190521194419 53 326 4.0 9.0 0.00 0.00 0.00 63 1012.7
20190521193952 53 312 1.0 12.0 0.00 0.00 0.00 64 1012.6
20190521193442 53 324 7.0 14.0 0.00 0.00 0.00 62 1012.6
20190521192931 53 322 2.0 14.0 0.00 0.00 0.00 67 1012.8
20190521192421 53 329 3.0 10.0 0.00 0.00 0.00 66 1012.8
20190521191950 53 316 3.0 10.0 0.00 0.00 0.00 66 1012.5
20190521191419 53 333 1.0 10.0 0.00 0.00 0.00 67 1012.5
20190521190932 53 333 4.0 10.0 0.00 0.00 0.00 69 1012.5
20190521190422 52 7 1.0 9.0 0.00 0.00 0.00 69 1012.5
20190521185937 52 316 2.0 9.0 0.00 0.00 0.00 67 1012.5
20190521185446 52 316 4.0 8.0 0.00 0.00 0.00 64 1012.2
20190521184921 52 349 0.0 12.0 0.00 0.00 0.00 66 1012.2
20190521184451 52 330 4.0 14.0 0.00 0.00 0.00 64 1012.0
20190521183920 52 320 5.0 14.0 0.00 0.00 0.00 65 1012.0
20190521183412 52 322 7.0 14.0 0.00 0.00 0.00 63 1012.1
20190521182946 52 332 5.0 12.0 0.00 0.00 0.00 65 1012.2
20190521182413 52 345 0.0 11.0 0.00 0.00 0.00 67 1012.1
20190521181925 52 317 4.0 11.0 0.00 0.00 0.00 64 1012.0
20190521181438 52 97 1.0 10.0 0.00 0.00 0.00 69 1012.1
20190521180927 51 322 4.0 12.0 0.00 0.00 0.00 67 1012.0
20190521180420 51 326 4.0 11.0 0.00 0.00 0.00 69 1012.0
20190521175953 51 327 3.0 11.0 0.00 0.00 0.00 69 1011.9
20190521175421 51 316 5.0 10.0 0.00 0.00 0.00 72 1011.9
20190521174917 51 344 0.0 8.0 0.00 0.00 0.00 73 1011.9
20190521174446 51 343 0.0 8.0 0.00 0.00 0.00 73 1011.9
20190521173914 51 335 2.0 5.0 0.00 0.00 0.00 75 1012.0
20190521173442 50 330 1.0 5.0 0.00 0.00 0.00 74 1012.0
20190521172930 50 328 1.0 7.0 0.00 0.00 0.00 77 1012.0
20190521172418 50 328 2.0 7.0 0.00 0.00 0.00 75 1012.0
20190521171910 50 334 1.0 8.0 0.00 0.00 0.00 76 1012.0
20190521171422 50 331 4.0 8.0 0.00 0.00 0.00 77 1011.9
20190521170931 50 326 1.0 9.0 0.00 0.00 0.00 79 1011.7
20190521170420 49 328 3.0 9.0 0.00 0.00 0.00 79 1011.6
20190521165927 49 38 3.0 8.0 0.00 0.00 0.00 80 1011.7
20190521165436 49 329 0.0 5.0 0.00 0.00 0.00 79 1011.7
20190521164943 49 326 0.0 4.0 0.00 0.00 0.00 80 1011.7
20190521164431 49 326 0.0 7.0 0.00 0.00 0.00 81 1011.8
20190521163926 48 324 3.0 13.0 0.00 0.00 0.00 78 1011.6
20190521163439 49 326 7.0 13.0 0.00 0.00 0.00 78 1011.6
20190521162929 50 343 2.0 8.0 0.00 0.00 0.00 76 1011.5
20190521162421 49 322 0.0 9.0 0.00 0.00 0.00 78 1011.5
20190521161932 49 308 5.0 9.0 0.00 0.00 0.00 76 1011.5
20190521161421 48 291 1.0 7.0 0.00 0.00 0.00 82 1011.5
20190521160934 48 311 2.0 10.0 0.00 0.00 0.00 81 1011.6
20190521160425 48 299 1.0 10.0 0.00 0.00 0.00 80 1011.5
20190521155917 49 307 6.0 10.0 0.00 0.00 0.00 80 1011.4
20190521155425 48 4 1.0 5.0 0.00 0.00 0.00 79 1011.5
20190521154935 48 310 1.0 5.0 0.00 0.00 0.00 80 1011.6
20190521154429 47 204 0.0 6.0 0.00 0.00 0.00 81 1011.7
20190521153940 47 326 1.0 6.0 0.00 0.00 0.00 79 1011.7
20190521153410 47 311 3.0 6.0 0.00 0.00 0.00 79 1011.7
20190521152922 47 347 1.0 3.0 0.00 0.00 0.00 79 1011.5
20190521152451 47 298 0.0 7.0 0.00 0.00 0.00 79 1011.4
20190521151921 47 279 2.0 7.0 0.00 0.00 0.00 80 1011.4
20190521151430 47 328 0.0 8.0 0.00 0.00 0.00 79 1011.4
20190521150917 47 295 3.0 8.0 0.00 0.00 0.00 79 1011.5
20190521150425 47 320 2.0 8.0 0.00 0.00 0.00 81 1011.4
20190521145937 47 322 2.0 5.0 0.00 0.00 0.00 81 1011.4
20190521145447 47 326 2.0 7.0 0.00 0.00 0.00 81 1011.3
20190521144936 47 323 3.0 8.0 0.00 0.00 0.00 81 1011.3
20190521144426 47 313 0.0 8.0 0.00 0.00 0.00 81 1011.2
20190521143916 47 320 2.0 9.0 0.00 0.00 0.00 80 1011.2
20190521143427 47 317 6.0 9.0 0.00 0.00 0.00 81 1011.2
20190521142937 47 261 5.0 8.0 0.00 0.00 0.00 81 1011.0
20190521142422 46 327 4.0 9.0 0.00 0.00 0.00 82 1011.0
20190521141929 46 324 4.0 9.0 0.00 0.00 0.00 81 1010.8
20190521141415 46 322 1.0 9.0 0.00 0.00 0.00 81 1010.9
20190521140942 46 322 5.0 11.0 0.00 0.00 0.00 81 1010.9
20190521140427 46 335 4.0 11.0 0.00 0.00 0.00 80 1010.8
20190521135918 46 291 5.0 9.0 0.00 0.00 0.00 81 1010.8
20190521135424 46 326 3.0 8.0 0.00 0.00 0.00 81 1010.7
20190521134952 46 316 2.0 8.0 0.00 0.00 0.00 82 1010.9
20190521134418 45 316 3.0 8.0 0.00 0.00 0.00 83 1011.0
20190521133910 45 320 2.0 8.0 0.00 0.00 0.00 83 1010.9
20190521133421 45 316 1.0 7.0 0.00 0.00 0.00 83 1011.1
20190521132913 45 320 4.0 13.0 0.00 0.00 0.00 83 1011.1
20190521132424 45 306 4.0 13.0 0.00 0.00 0.00 82 1011.3
20190521131916 45 319 1.0 9.0 0.00 0.00 0.00 81 1011.2
20190521131428 45 316 3.0 9.0 0.00 0.00 0.00 79 1011.1
20190521130935 45 322 2.0 9.0 0.00 0.00 0.00 80 1011.1
20190521130422 45 337 4.0 9.0 0.00 0.00 0.00 80 1011.1
20190521125914 45 322 3.0 8.0 0.00 0.00 0.00 81 1011.1
20190521125445 45 333 4.0 7.0 0.00 0.00 0.00 83 1011.2
20190521124912 45 346 3.0 6.0 0.00 0.00 0.00 82 1011.1
20190521124443 45 326 3.0 7.0 0.00 0.00 0.00 85 1011.1
20190521123910 45 325 2.0 9.0 0.00 0.00 0.00 86 1011.1
20190521123421 45 333 3.0 8.0 0.00 0.00 0.00 86 1011.2
20190521122930 44 330 3.0 8.0 0.00 0.00 0.00 87 1011.0
20190521122439 44 313 4.0 9.0 0.00 0.00 0.00 87 1011.1
20190521121927 44 326 4.0 10.0 0.00 0.00 0.00 87 1011.1
20190521121419 45 312 5.0 12.0 0.00 0.00 0.00 87 1011.1
20190521120932 45 318 5.0 12.0 0.00 0.00 0.00 86 1011.1
20190521120421 45 319 3.0 14.0 0.00 0.00 0.00 87 1011.2
20190521115953 45 326 6.0 14.0 0.00 0.00 0.00 86 1011.0
20190521115424 45 350 3.0 9.0 0.00 0.00 0.00 86 1011.0
20190521114941 45 318 3.0 7.0 0.00 0.00 0.00 86 1011.0
20190521114453 45 312 0.0 7.0 0.00 0.00 0.00 86 1011.0
20190521113940 45 314 1.0 12.0 0.00 0.00 0.00 84 1011.1
20190521113452 45 322 3.0 12.0 0.00 0.00 0.00 83 1011.1
20190521112919 45 317 4.0 11.0 0.00 0.00 0.00 82 1011.0
20190521112427 45 316 4.0 11.0 0.00 0.00 0.00 83 1010.8
20190521111915 45 307 3.0 8.0 0.00 0.00 0.00 82 1010.8
20190521111428 45 314 4.0 8.0 0.00 0.00 0.00 83 1010.7
20190521110921 45 328 3.0 6.0 0.00 0.00 0.00 84 1010.8
20190521110413 45 339 1.0 6.0 0.00 0.00 0.00 84 1010.7
20190521105926 45 339 1.0 6.0 0.00 0.00 0.00 84 1010.5
20190521105418 45 328 1.0 5.0 0.00 0.00 0.00 85 1010.6
20190521104914 45 326 0.0 2.0 0.00 0.00 0.00 85 1010.9
20190521104443 45 319 0.0 5.0 0.00 0.00 0.00 86 1010.8
20190521103917 45 318 0.0 7.0 0.00 0.00 0.00 85 1010.6
20190521103412 45 318 4.0 8.0 0.00 0.00 0.00 84 1010.5
20190521102941 45 314 3.0 12.0 0.00 0.00 0.00 83 1010.6
20190521102450 45 318 5.0 12.0 0.00 0.00 0.00 82 1010.3
20190521101941 46 298 7.0 12.0 0.00 0.00 0.00 81 1010.3
20190521101428 46 274 3.0 8.0 0.00 0.00 0.00 81 1010.4
20190521100916 46 327 3.0 10.0 0.00 0.00 0.00 81 1010.4
20190521100421 46 287 7.0 10.0 0.00 0.00 0.00 81 1010.4
20190521095912 46 303 6.0 9.0 0.00 0.00 0.00 81 1010.2
20190521095421 46 314 2.0 11.0 0.00 0.00 0.00 81 1010.2
20190521094912 46 336 5.0 11.0 0.00 0.00 0.00 82 1010.2
20190521094424 46 301 4.0 8.0 0.00 0.00 0.00 83 1010.4
20190521093918 46 329 4.0 10.0 0.00 0.00 0.00 83 1010.1
20190521093429 46 318 7.0 10.0 0.00 0.00 0.00 83 1009.8
20190521092917 46 333 2.0 6.0 0.00 0.00 0.00 84 1009.9
20190521092443 46 333 0.0 6.0 0.00 0.00 0.00 85 1009.5
20190521091914 46 329 2.0 7.0 0.00 0.00 0.00 85 1009.5
20190521091441 46 325 3.0 7.0 0.00 0.00 0.00 85 1009.5
20190521090952 46 328 2.0 6.0 0.00 0.00 0.00 85 1009.5
20190521090439 46 341 2.0 6.0 0.00 0.00 0.00 85 1009.5
20190521085928 46 327 3.0 6.0 0.00 0.00 0.00 85 1009.1
20190521085418 47 328 1.0 7.0 0.00 0.00 0.00 86 1009.1
20190521084930 47 327 2.0 9.0 0.00 0.00 0.00 85 1009.2
20190521084437 47 325 4.0 14.0 0.00 0.00 0.00 86 1009.0
20190521083945 47 307 6.0 14.0 0.00 0.00 0.00 86 1009.0
20190521083414 47 308 9.0 14.0 0.00 0.00 0.00 85 1009.0
20190521082943 47 310 5.0 12.0 0.00 0.00 0.00 85 1008.8
20190521082413 47 330 4.0 11.0 0.00 0.00 0.00 86 1008.9
20190521081926 48 336 5.0 9.0 0.00 0.00 0.00 86 1008.9
20190521081417 47 333 2.0 5.0 0.00 0.00 0.00 86 1008.6
20190521080929 47 330 0.0 0.0 0.00 0.00 0.00 86 1008.6
20190521080416 47 330 0.0 2.0 0.00 0.00 0.00 85 1008.5
20190521075923 47 330 0.0 2.0 0.00 0.00 0.00 85 1008.5
20190521075414 47 332 0.0 7.0 0.00 0.00 0.00 85 1008.7
20190521074921 47 336 4.0 7.0 0.00 0.00 0.00 86 1008.6
20190521074428 47 328 1.0 5.0 0.00 0.00 0.00 86 1009.0
20190521073916 48 334 2.0 7.0 0.00 0.00 0.00 86 1008.9
20190521073430 48 333 1.0 8.0 0.00 0.00 0.00 85 1008.8
20190521072942 48 333 2.0 13.0 0.00 0.00 0.00 85 1008.9
20190521072431 48 310 7.0 13.0 0.00 0.00 0.00 84 1008.8
20190521071921 49 328 3.0 7.0 0.00 0.00 0.00 86 1008.6
20190521071412 49 324 4.0 7.0 0.00 0.00 0.00 86 1009.0
20190521070941 49 329 3.0 5.0 0.00 0.00 0.00 86 1008.6
20190521070412 49 325 2.0 11.0 0.00 0.00 0.00 86 1008.8
20190521065942 49 325 2.0 11.0 0.00 0.00 0.00 86 1008.7
20190521065428 49 312 5.0 8.0 0.00 0.00 0.00 87 1008.8
20190521064914 49 324 1.0 8.0 0.00 0.00 0.00 87 1008.9
20190521064426 49 326 1.0 5.0 0.00 0.00 0.00 87 1008.8
20190521063934 49 322 1.0 5.0 0.00 0.00 0.00 87 1008.7
20190521063425 49 324 1.0 6.0 0.00 0.00 0.00 87 1008.5
20190521062952 49 312 2.0 9.0 0.00 0.00 0.00 87 1008.4
20190521062419 49 318 2.0 9.0 0.00 0.00 0.00 86 1008.3
20190521061949 49 326 3.0 7.0 0.00 0.00 0.00 86 1008.4
20190521061421 50 309 3.0 7.0 0.00 0.00 0.00 86 1008.3
20190521060934 50 318 3.0 7.0 0.00 0.00 0.00 86 1008.2
20190521060422 50 321 2.0 7.0 0.00 0.00 0.00 85 1008.4
20190521055914 50 332 1.0 8.0 0.00 0.00 0.00 85 1008.7
20190521055423 50 322 2.0 13.0 0.00 0.00 0.00 84 1008.7
20190521054932 51 295 4.0 13.0 0.00 0.00 0.00 85 1008.8
20190521054420 51 283 2.0 13.0 0.00 0.00 0.00 84 1008.6
20190521053953 51 324 4.0 13.0 0.00 0.00 0.00 84 1008.4
20190521053423 51 276 3.0 8.0 0.00 0.00 0.00 85 1008.1
20190521052918 51 329 3.0 8.0 0.00 0.00 0.00 85 1008.2
20190521052430 52 316 3.0 8.0 0.00 0.00 0.00 84 1008.3
20190521051919 52 308 5.0 8.0 0.00 0.00 0.00 84 1008.2
20190521051427 52 318 1.0 6.0 0.00 0.00 0.00 83 1008.1
20190521050920 52 317 2.0 7.0 0.00 0.00 0.00 83 1008.1
20190521050415 52 312 2.0 10.0 0.00 0.00 0.00 83 1008.0
20190521045909 52 341 5.0 10.0 0.00 0.00 0.00 83 1008.0
20190521045424 53 330 3.0 10.0 0.00 0.00 0.00 83 1008.1
20190521044917 53 328 4.0 11.0 0.00 0.00 0.00 83 1008.2
20190521044423 53 319 2.0 11.0 0.00 0.00 0.00 83 1008.3
20190521043913 53 329 2.0 6.0 0.00 0.00 0.00 83 1008.2
20190521043440 53 315 3.0 5.0 0.00 0.00 0.00 83 1008.4
20190521042947 53 331 0.0 2.0 0.00 0.00 0.00 83 1008.3
20190521042421 53 331 1.0 5.0 0.00 0.00 0.00 83 1008.1
20190521041929 54 332 1.0 5.0 0.00 0.00 0.00 82 1007.9
20190521041418 54 335 1.0 6.0 0.00 0.00 0.00 81 1007.8
20190521040926 54 331 1.0 6.0 0.00 0.00 0.00 80 1007.9
20190521040453 55 332 1.0 5.0 0.00 0.00 0.00 78 1008.0
20190521035939 56 333 1.0 5.0 0.00 0.00 0.00 75 1007.9
20190521035445 56 335 0.0 7.0 0.00 0.00 0.00 72 1007.9
20190521034951 57 333 1.0 10.0 0.00 0.00 0.00 69 1008.0
20190521034417 57 353 3.0 10.0 0.00 0.00 0.00 67 1008.2
20190521033948 57 325 3.0 8.0 0.00 0.00 0.00 66 1008.1
20190521033422 58 8 3.0 9.0 0.00 0.00 0.00 66 1007.8
20190521032911 58 301 0.0 9.0 0.00 0.00 0.00 64 1007.9
20190521032447 58 323 3.0 14.0 0.00 0.00 0.00 65 1007.8
20190521031940 59 310 4.0 14.0 0.00 0.00 0.00 63 1007.5
20190521031453 59 324 4.0 13.0 0.00 0.00 0.00 64 1007.3
20190521030923 59 282 3.0 18.0 0.00 0.00 0.00 64 1007.1
20190521030414 59 320 1.0 18.0 0.00 0.00 0.00 64 1007.3
20190521025921 59 316 1.0 7.0 0.00 0.00 0.00 64 1007.2
20190521025429 59 328 1.0 9.0 0.00 0.00 0.00 64 1007.1
20190521024916 59 339 1.0 14.0 0.00 0.00 0.00 63 1007.1
20190521024428 59 329 2.0 7.0 0.00 0.00 0.00 63 1007.2
20190521023919 60 293 1.0 12.0 0.00 0.00 0.00 63 1007.2
20190521023415 60 36 3.0 8.0 0.00 0.00 0.00 63 1007.3
20190521022922 60 303 3.0 9.0 0.00 0.00 0.00 63 1007.2
20190521022429 60 306 4.0 9.0 0.00 0.00 0.00 63 1007.2
20190521021919 60 316 4.0 9.0 0.00 0.00 0.00 62 1007.3
20190521021430 60 322 4.0 14.0 0.00 0.00 0.00 63 1007.3
20190521020937 61 321 4.0 14.0 0.00 0.00 0.00 63 1007.4
20190521020423 61 295 3.0 12.0 0.00 0.00 0.00 61 1007.5
20190521015929 61 343 1.0 12.0 0.00 0.00 0.00 63 1007.5
20190521015418 61 305 3.0 9.0 0.00 0.00 0.00 63 1007.4
20190521014929 61 320 1.0 11.0 0.00 0.00 0.00 61 1007.6
20190521014419 61 270 4.0 11.0 0.00 0.00 0.00 61 1007.3
20190521013929 62 326 1.0 11.0 0.00 0.00 0.00 62 1007.4
20190521013417 62 314 7.0 15.0 0.00 0.00 0.00 63 1007.3
20190521012909 62 19 6.0 15.0 0.00 0.00 0.00 62 1007.4
20190521012424 62 293 6.0 13.0 0.00 0.00 0.00 63 1007.1
20190521011920 62 323 4.0 13.0 0.00 0.00 0.00 65 1007.1
20190521011445 62 284 6.0 13.0 0.00 0.00 0.00 63 1007.2
20190521010915 62 191 1.0 13.0 0.00 0.00 0.00 64 1007.0
20190521010425 62 329 5.0 13.0 0.00 0.00 0.00 64 1007.2
20190521005936 62 46 2.0 10.0 0.00 0.00 0.00 65 1007.3
20190521005423 62 299 2.0 7.0 0.00 0.00 0.00 65 1007.0
20190521004918 62 314 2.0 6.0 0.00 0.00 0.00 62 1006.8
20190521004428 62 323 2.0 9.0 0.00 0.00 0.00 64 1006.8
20190521003916 62 319 2.0 9.0 0.00 0.00 0.00 64 1006.6
20190521003445 62 332 1.0 7.0 0.00 0.00 0.00 64 1006.7
20190521002951 63 301 2.0 10.0 0.00 0.00 0.00 64 1006.6
20190521002416 63 333 3.0 10.0 0.00 0.00 0.00 63 1006.5
20190521001924 63 323 3.0 11.0 0.00 0.00 0.00 64 1006.4
20190521001414 63 294 6.0 11.0 0.00 0.00 0.00 62 1006.4
20190521000922 63 334 4.0 9.0 0.00 0.00 0.00 63 1006.5
20190521000434 63 316 5.0 11.0 0.00 0.00 0.00 64 1006.5
20190520235925 64 302 5.0 11.0 0.00 0.00 0.00 65 1006.4
20190520235436 64 316 3.0 11.0 0.00 0.00 0.00 65 1006.4
20190520234928 64 337 5.0 13.0 0.00 0.00 0.00 63 1006.5
20190520234416 64 349 5.0 13.0 0.00 0.00 0.00 64 1006.4
20190520233923 64 301 5.0 11.0 0.00 0.00 0.00 66 1006.2
20190520233430 64 310 0.0 8.0 0.00 0.00 0.00 67 1006.2
20190520232919 65 300 2.0 10.0 0.00 0.00 0.00 67 1006.2
20190520232427 65 319 3.0 11.0 0.00 0.00 0.00 66 1006.2
20190520231918 65 320 4.0 13.0 0.00 0.00 0.00 68 1006.3
20190520231427 65 319 6.0 13.0 0.00 0.00 0.00 66 1006.1
20190520230916 66 268 1.0 8.0 0.00 0.00 0.00 67 1006.0
20190520230422 66 332 5.0 12.0 0.00 0.00 0.00 67 1006.0
20190520225918 66 338 2.0 12.0 0.00 0.00 0.00 68 1006.1
20190520225447 66 324 4.0 9.0 0.00 0.00 0.00 67 1006.1
20190520224912 66 325 3.0 9.0 0.00 0.00 0.00 69 1005.9
20190520224422 66 314 5.0 9.0 0.00 0.00 0.00 69 1005.7
20190520223927 67 322 0.0 7.0 0.00 0.00 0.00 71 1005.7
20190520223413 67 326 0.0 7.0 0.00 0.00 0.00 70 1005.6
20190520222921 67 264 0.0 4.0 0.00 0.00 0.00 70 1005.6
20190520222435 67 272 0.0 5.0 0.00 0.00 0.00 71 1005.4
20190520221924 67 320 1.0 5.0 0.00 0.00 0.00 70 1005.4
20190520221413 68 320 0.0 5.0 0.00 0.00 0.00 73 1005.2
20190520220919 68 278 1.0 5.0 0.00 0.00 0.00 71 1005.2
20190520220426 68 335 0.0 0.0 0.00 0.00 0.00 70 1005.0
20190520215916 69 341 0.0 0.0 0.00 0.00 0.00 70 1005.1
20190520215422 69 341 0.0 0.0 0.00 0.00 0.00 69 1005.0
20190520214930 69 282 0.0 1.0 0.00 0.00 0.00 69 1005.0
20190520214436 69 320 0.0 0.0 0.00 0.00 0.00 69 1005.0